Stations météo

réclame
Mon MeteoGroup
Valdepena, Espagne (8351): Température de l'air & dewpoint: 10.12.2017 12:00:00 - 16.12.2017 12:00:00 (CET)Valdepena, Espagne (8351): Vitesse du vent & gusts: 10.12.2017 12:00:00 - 16.12.2017 12:00:00 (CET)Valdepena, Espagne (8351): Direction du vent: 10.12.2017 12:00:00 - 16.12.2017 12:00:00 (CET)Valdepena, Espagne (8351): reduced air pressure: 10.12.2017 12:00:00 - 16.12.2017 12:00:00 (CET)Valdepena, Espagne (8351): visibility: 10.12.2017 12:00:00 - 16.12.2017 12:00:00 (CET)Valdepena, Espagne (8351): Ensoleillement: 10.12.2017 12:00:00 - 16.12.2017 12:00:00 (CET)Valdepena, Espagne (8351): Quantités de précipitations: 10.12.2017 12:00:00 - 16.12.2017 12:00:00 (CET)
Date & Time tt [°C] td [°C] ff [km/h] ff [knt] fx [km/h] fx [knt] dd ppp [hPa] vv [km] sd [min] rr [mm]
16.12.2017 12:00:00 - - - - - - - - - - -
16.12.2017 11:00:00 4,2 -1,2 8 4 19 11 NNW 1022,9 5 30 0,0
16.12.2017 10:00:00 2,5 -1,7 5 3 9 5 N 1022,4 5 0 0,0
16.12.2017 09:00:00 1,1 -2,2 4 2 11 6 NE 1022,0 5 0 0,0
16.12.2017 08:00:00 0,7 -1,4 8 4 12 6 N 1021,4 5 0 0,0
16.12.2017 07:00:00 0,5 -2,0 2 1 8 4 N 1020,9 6 0 -
16.12.2017 06:00:00 1,2 -1,4 5 3 11 6 N 1019,5 5 0 0,0
16.12.2017 05:00:00 1,4 -1,4 4 2 11 6 N 1019,2 6 0 0,0
16.12.2017 04:00:00 2,4 -1,2 5 3 16 8 N 1018,6 5 0 0,0
16.12.2017 03:00:00 3,5 -1,0 8 4 18 10 NNW 1017,7 5 0 0,0
16.12.2017 02:00:00 4,0 -0,5 8 4 25 14 N 1017,3 6 0 0,0
16.12.2017 01:00:00 4,9 0,2 12 6 22 12 NNW 1016,6 5 0 -
16.12.2017 00:00:00 6,2 1,5 10 6 26 14 N 1015,7 6 0 0,0
15.12.2017 23:00:00 7,3 2,9 8 4 21 11 N 1014,9 6 0 0,0
15.12.2017 22:00:00 8,2 4,5 8 5 21 12 N 1014,0 6 0 0,0
15.12.2017 21:00:00 9,0 4,6 10 5 25 13 NNW 1013,5 6 0 0,0
15.12.2017 20:00:00 10,6 9,2 9 5 19 10 W 1012,2 6 0 0,6
15.12.2017 19:00:00 11,2 9,7 6 4 22 12 WSW 1011,2 6 0 -
15.12.2017 18:00:00 11,5 9,6 14 8 34 18 SW 1010,8 6 0 0,4
15.12.2017 17:00:00 11,7 9,8 18 10 39 21 SSW 1010,4 4,2 0 0,2
15.12.2017 16:00:00 11,3 9,7 18 10 30 16 S 1010,4 5 0 0,2
15.12.2017 15:00:00 11,5 9,2 18 10 36 20 S 1010,6 5 0 0,2
15.12.2017 14:00:00 12,7 8,0 18 10 39 21 SSW 1010,8 5 0 0,0
15.12.2017 13:00:00 12,7 8,1 18 10 33 18 SSW 1011,8 5 2 -
15.12.2017 12:00:00 11,6 7,1 17 9 35 19 SSW 1013,6 5 7 0,0
15.12.2017 11:00:00 10,6 7,0 16 8 31 17 SSW 1014,9 4,3 4 0,0
15.12.2017 10:00:00 9,7 6,5 15 8 34 18 SSW 1014,8 4,7 0 0,0
15.12.2017 09:00:00 9,2 6,4 10 6 26 14 SSW 1014,8 6 0 0,0
15.12.2017 08:00:00 9,4 7,0 13 7 27 15 S 1014,7 6 0 0,0
15.12.2017 07:00:00 9,7 7,4 10 6 24 13 SW 1014,8 6 0 -
15.12.2017 06:00:00 10,0 8,0 12 7 26 14 SW 1014,8 4,1 0 0,0
15.12.2017 05:00:00 9,9 8,1 13 7 26 14 SSW 1015,2 4,9 0 0,0
15.12.2017 04:00:00 9,6 7,8 11 6 27 15 SSW 1015,9 5 0 0,0
15.12.2017 03:00:00 9,4 7,6 17 9 27 15 S 1016,1 5 0 0,0
15.12.2017 02:00:00 8,9 7,0 11 6 21 11 S 1016,6 6 0 0,0
15.12.2017 01:00:00 8,6 6,7 10 5 26 14 SSE 1017,8 3,7 0 -
15.12.2017 00:00:00 8,3 6,5 16 9 34 19 S 1018,2 4,7 0 0,0
14.12.2017 23:00:00 8,5 6,4 11 6 22 12 S 1019,2 6 0 0,0
14.12.2017 22:00:00 8,7 6,5 9 5 18 10 S 1019,8 6 0 0,0
14.12.2017 21:00:00 8,7 6,7 7 4 18 10 SSE 1020,3 6 0 0,0
14.12.2017 20:00:00 8,5 6,2 8 4 15 8 SSE 1020,6 5 0 0,0
14.12.2017 19:00:00 7,9 6,1 8 4 20 11 SSE 1020,8 5 0 -
14.12.2017 18:00:00 8,2 6,4 10 6 21 11 SSE 1021,1 5 0 0,2
14.12.2017 17:00:00 8,3 6,4 10 5 23 12 SSE 1021,2 3,7 0 0,0
14.12.2017 16:00:00 8,6 5,9 10 5 26 14 SSE 1021,3 5 0 0,0
14.12.2017 15:00:00 8,8 6,1 12 6 27 14 S 1021,4 5 0 0,0
14.12.2017 14:00:00 8,9 6,4 11 6 22 12 SSE 1022,6 5 0 0,0
14.12.2017 13:00:00 8,5 6,2 9 5 20 11 SSE 1023,8 4,5 0 -
14.12.2017 12:00:00 7,6 5,5 9 5 20 11 S 1025,2 4,8 0 0,0
14.12.2017 11:00:00 7,1 4,6 11 6 22 12 SSE 1025,7 4,7 0 0,0
14.12.2017 10:00:00 6,3 3,2 7 4 15 8 SSE 1026,2 5 0 0,0
14.12.2017 09:00:00 5,6 2,9 5 3 18 10 SSE 1026,3 4,9 0 0,0
14.12.2017 08:00:00 5,6 2,5 9 5 15 8 SSE 1026,0 5 0 0,0
14.12.2017 07:00:00 5,2 1,3 6 4 14 7 SSE 1026,1 5 0 -
14.12.2017 06:00:00 4,5 0,2 8 4 14 8 SSE 1026,2 5 0 0,0
14.12.2017 05:00:00 4,3 0,0 6 3 12 7 SSE 1026,6 5 0 0,0
14.12.2017 04:00:00 4,9 0,2 7 4 15 8 SSE 1027,2 6 0 0,0
14.12.2017 03:00:00 5,0 -0,7 5 3 11 6 SSE 1027,4 5 0 0,0
14.12.2017 02:00:00 4,2 -0,5 5 3 10 5 ESE 1027,9 5 0 0,0
14.12.2017 01:00:00 3,3 -1,2 2 1 5 3 E 1028,8 5 0 -
14.12.2017 00:00:00 4,7 -1,0 5 3 11 6 SE 1028,8 5 0 0,0
13.12.2017 23:00:00 4,0 -0,5 3 2 9 5 SSE 1029,2 5 0 0,0
13.12.2017 22:00:00 4,5 -1,2 4 2 10 5 ESE 1029,0 5 0 0,0
13.12.2017 21:00:00 5,5 -1,4 6 3 10 5 SSE 1028,6 5 0 0,0
13.12.2017 20:00:00 5,3 -1,4 5 3 10 5 S 1028,6 5 0 0,0
13.12.2017 19:00:00 6,3 -0,3 5 3 7 4 SSE 1027,8 5 0 -
13.12.2017 18:00:00 8,5 -0,3 3 2 9 5 SE 1027,1 5 0 0,0
13.12.2017 17:00:00 10,3 -1,2 4 2 18 10 WSW 1026,7 5 42 0,0
13.12.2017 16:00:00 11,1 -4,2 9 5 19 10 SSW 1026,0 5 60 0,0
13.12.2017 15:00:00 10,6 -3,3 7 4 15 8 SSW 1026,5 6 60 0,0
13.12.2017 14:00:00 10,4 -3,0 7 4 14 8 SSW 1027,2 5 60 0,0
13.12.2017 13:00:00 9,4 -0,3 5 3 9 5 S 1028,0 5 60 -
13.12.2017 12:00:00 7,3 0,2 3 1 5 3 S 1029,8 5 58 0,0
13.12.2017 11:00:00 2,9 -0,3 3 2 9 5 N 1031,2 4,8 34 0,0
13.12.2017 10:00:00 0,2 -1,4 1 1 8 5 ENE 1030,9 3,1 0 0,0
13.12.2017 09:00:00 -2,0 -3,3 3 2 6 4 N 1031,2 4,1 0 0,0
13.12.2017 08:00:00 -2,1 -3,6 1 1 9 5 ESE 1031,3 4,9 0 0,0
13.12.2017 07:00:00 -1,8 -3,0 4 2 7 4 N 1030,4 5 0 -
13.12.2017 06:00:00 -2,0 -3,3 3 1 8 4 E 1029,8 5 0 0,0
13.12.2017 05:00:00 -1,6 -3,0 2 1 5 3 NW 1029,4 5 0 0,0
13.12.2017 04:00:00 -0,9 -2,5 3 2 10 5 N 1029,3 6 0 0,0
13.12.2017 03:00:00 -1,2 -2,7 2 1 5 3 N 1029,2 5 0 0,0
13.12.2017 02:00:00 -0,8 -2,7 1 1 8 5 ESE 1028,9 5 0 0,0
13.12.2017 01:00:00 -0,6 -2,5 4 2 7 4 N 1028,4 6 0 -
13.12.2017 00:00:00 0,1 -2,2 2 1 9 5 ENE 1027,4 5 0 0,0
12.12.2017 23:00:00 0,8 -1,7 1 1 7 4 E 1026,6 5 0 0,0
12.12.2017 22:00:00 0,9 -1,7 0 0 5 3 N 1026,0 5 0 0,0
12.12.2017 21:00:00 2,0 -1,7 1 1 6 3 NE 1025,0 4,8 0 0,0
12.12.2017 20:00:00 2,7 -1,7 1 1 5 3 ESE 1024,1 4,6 0 0,0
12.12.2017 19:00:00 4,1 -1,4 3 2 6 4 NNE 1022,7 4,5 0 -
12.12.2017 18:00:00 6,2 -2,5 4 2 11 6 NNW 1021,4 5 0 0,0
12.12.2017 17:00:00 7,1 -3,3 6 3 22 12 NW 1020,1 5 42 0,0
12.12.2017 16:00:00 7,4 -2,7 6 3 19 10 NNW 1019,5 5 60 0,0
12.12.2017 15:00:00 7,0 -2,5 9 5 21 12 NNW 1018,8 5 60 0,0
12.12.2017 14:00:00 6,9 -2,2 10 5 21 12 N 1018,3 4,9 60 0,0
12.12.2017 13:00:00 6,5 -2,7 6 3 15 8 N 1018,6 5 60 -
12.12.2017 12:00:00 5,3 -2,0 8 4 18 10 NNW 1018,8 5 58 0,0
12.12.2017 11:00:00 3,4 -1,4 4 2 11 6 N 1019,0 5 33 0,0
12.12.2017 10:00:00 1,9 -2,0 5 3 12 7 NNW 1018,6 5 0 0,0
12.12.2017 09:00:00 0,6 -1,7 3 2 7 4 NNW 1017,8 4,8 0 0,0
12.12.2017 08:00:00 1,4 -1,4 4 2 11 6 NNE 1016,6 5 0 0,0
12.12.2017 07:00:00 2,0 -0,5 5 3 14 8 NNW 1015,5 5 0 -
12.12.2017 06:00:00 2,7 0,2 8 4 16 8 NNW 1013,6 6 0 0,0
12.12.2017 05:00:00 3,0 1,7 4 2 9 5 WNW 1012,1 6 0 0,0
12.12.2017 04:00:00 3,0 1,7 2 1 6 3 SE 1011,2 6 0 0,0
12.12.2017 03:00:00 2,8 1,3 2 1 10 5 SSW 1010,7 6 0 0,0
12.12.2017 02:00:00 3,1 1,5 6 3 27 14 NNW 1009,7 6 0 0,2
12.12.2017 01:00:00 5,5 2,3 10 5 25 13 WSW 1008,4 3,5 0 -
12.12.2017 00:00:00 5,5 3,4 4 2 10 6 S 1007,5 6 0 0,0
11.12.2017 23:00:00 5,5 3,2 5 3 25 13 SSE 1006,6 5 0 0,0
11.12.2017 22:00:00 6,1 3,8 6 3 18 10 S 1005,4 5 0 0,0
11.12.2017 21:00:00 6,0 3,4 10 5 23 13 SSE 1004,9 5 0 0,2
11.12.2017 20:00:00 5,9 1,9 9 5 20 11 SSE 1004,2 5 0 0,0
11.12.2017 19:00:00 5,8 1,1 10 5 24 13 S 1003,3 5 0 -
11.12.2017 18:00:00 6,6 1,1 11 6 33 18 SW 1002,4 5 0 0,0
11.12.2017 17:00:00 7,6 1,3 14 8 33 18 SSW 1001,2 5 34 0,0
11.12.2017 16:00:00 7,5 2,3 14 8 37 20 SSW 1000,5 5 37 0,0
11.12.2017 15:00:00 7,3 2,9 14 8 38 21 SSW 1000,2 5 20 0,0
11.12.2017 14:00:00 7,1 3,0 18 10 36 20 SW 1000,4 6 18 0,0
11.12.2017 13:00:00 6,2 3,8 23 12 40 22 S 1000,3 6 23 -
11.12.2017 12:00:00 4,9 3,0 23 13 39 21 S 1001,2 4,2 0 0,0
11.12.2017 11:00:00 3,6 2,1 16 9 - - S 1001,6 6 - -
11.12.2017 10:00:00 3,4 1,7 18 10 29 16 S 1001,4 4,1 0 2,0
11.12.2017 09:00:00 3,9 1,9 14 8 40 22 SW 999,5 3,0 0 4,6
11.12.2017 08:00:00 4,9 2,7 22 12 43 23 SW 998,7 2,6 0 4,2
11.12.2017 07:00:00 6,4 4,6 18 10 50 27 WSW 997,2 4,1 0 -
11.12.2017 06:00:00 10,7 8,7 26 14 53 29 S 993,1 3,3 0 1,6
11.12.2017 05:00:00 10,6 8,5 27 14 63 34 S 994,4 3,9 0 1,6
11.12.2017 04:00:00 10,7 8,4 23 12 49 27 S 996,1 4,7 0 1,0
11.12.2017 03:00:00 11,1 7,6 23 12 61 33 S 998,1 4,5 0 0,4
11.12.2017 02:00:00 12,2 6,8 32 18 61 33 S 999,8 5 0 0,0
11.12.2017 01:00:00 11,1 7,8 21 12 50 27 S 1001,9 5 0 -
11.12.2017 00:00:00 11,4 7,1 26 14 49 27 S 1003,7 4,6 0 0,0
10.12.2017 23:00:00 11,0 6,5 27 15 52 28 S 1005,0 4,9 0 0,0
10.12.2017 22:00:00 10,9 6,7 19 10 43 23 S 1006,5 4,8 0 0,0
10.12.2017 21:00:00 11,0 6,5 19 11 40 22 S 1008,9 4,8 0 0,0
10.12.2017 20:00:00 10,5 6,7 16 9 37 20 S 1010,6 4,8 0 0,0
10.12.2017 19:00:00 9,9 7,1 17 9 31 17 S 1011,7 4,9 0 -
10.12.2017 18:00:00 10,1 6,7 18 10 41 22 S 1012,8 4,3 0 0,0
10.12.2017 17:00:00 10,8 6,1 21 11 40 22 S 1012,9 4,9 0 0,0
10.12.2017 16:00:00 11,1 6,1 18 10 37 20 S 1014,4 5 0 0,0
10.12.2017 15:00:00 11,5 6,4 18 10 36 19 S 1015,7 4,9 0 0,0
10.12.2017 14:00:00 12,3 4,5 13 7 28 15 SSW 1017,3 5 0 0,0
10.12.2017 13:00:00 11,9 4,6 16 8 32 17 S 1018,0 4,7 0 -
10.12.2017 12:00:00 11,8 4,8 19 11 35 19 S 1019,5 5 22 0,0

tt = Température de l'air
td = dewpoint
ff = Vitesse du vent
fx = gusts
dd = Direction du vent
ppp = reduced air pressure
vv = visibility
sd = Ensoleillement
rr = Quantités de précipitations

stations d'obs. à proximité